TimeCST,TemperatureF,Dew PointF,Humidity,Sea Level PressureIn,VisibilityMPH,Wind Direction,Wind SpeedMPH,Gust SpeedMPH,PrecipitationIn,Events,Conditions,WindDirDegrees,DateUTC
12:15 AM,26.6,17.6,69,30.12,10.0,Calm,Calm,-,N/A,,Unknown,0,2013-02-23 06:15:00
12:35 AM,24.8,17.6,74,30.11,10.0,Calm,Calm,-,N/A,,Unknown,0,2013-02-23 06:35:00
12:55 AM,24.8,17.6,74,30.10,10.0,Calm,Calm,-,N/A,,Unknown,0,2013-02-23 06:55:00
1:15 AM,24.8,17.6,74,30.10,9.0,Calm,Calm,-,N/A,,Unknown,0,2013-02-23 07:15:00
1:35 AM,24.8,17.6,74,30.10,8.0,Calm,Calm,-,N/A,,Unknown,0,2013-02-23 07:35:00
1:55 AM,23.0,15.8,74,30.09,8.0,Calm,Calm,-,N/A,,Unknown,0,2013-02-23 07:55:00
2:15 AM,23.0,17.6,80,30.08,6.0,Calm,Calm,-,N/A,,Unknown,0,2013-02-23 08:15:00
2:35 AM,23.0,17.6,80,30.07,7.0,Calm,Calm,-,N/A,,Unknown,0,2013-02-23 08:35:00
2:55 AM,23.0,17.6,80,30.07,9.0,Calm,Calm,-,N/A,,Unknown,0,2013-02-23 08:55:00
3:15 AM,21.2,15.8,80,30.07,7.0,Calm,Calm,-,N/A,,Unknown,0,2013-02-23 09:15:00
3:35 AM,21.2,15.8,80,30.07,7.0,Calm,Calm,-,N/A,,Unknown,0,2013-02-23 09:35:00
3:55 AM,21.2,15.8,80,30.06,7.0,Calm,Calm,-,N/A,,Unknown,0,2013-02-23 09:55:00
4:15 AM,21.2,15.8,80,30.05,7.0,Calm,Calm,-,N/A,,Unknown,0,2013-02-23 10:15:00
4:35 AM,21.2,15.8,80,30.05,5.0,Calm,Calm,-,N/A,,Unknown,0,2013-02-23 10:35:00
4:55 AM,21.2,15.8,80,30.04,5.0,NNE,3.5,-,N/A,,Unknown,30,2013-02-23 10:55:00
5:15 AM,21.2,15.8,80,30.03,5.0,Calm,Calm,-,N/A,,Unknown,0,2013-02-23 11:15:00
5:35 AM,19.4,12.2,74,30.03,7.0,Calm,Calm,-,N/A,,Unknown,0,2013-02-23 11:35:00
5:55 AM,21.2,14.0,74,30.04,8.0,Calm,Calm,-,N/A,,Unknown,0,2013-02-23 11:55:00
6:15 AM,19.4,12.2,74,30.04,7.0,Calm,Calm,-,N/A,,Unknown,0,2013-02-23 12:15:00
6:35 AM,19.4,14.0,80,30.03,7.0,Calm,Calm,-,N/A,,Unknown,0,2013-02-23 12:35:00
6:55 AM,19.4,14.0,80,30.04,5.0,Calm,Calm,-,N/A,,Unknown,0,2013-02-23 12:55:00
7:15 AM,19.4,12.2,74,30.04,4.0,Calm,Calm,-,N/A,,Unknown,0,2013-02-23 13:15:00
7:35 AM,19.4,14.0,80,30.04,5.0,Calm,Calm,-,N/A,,Unknown,0,2013-02-23 13:35:00
7:55 AM,23.0,17.6,80,30.05,6.0,Calm,Calm,-,N/A,,Unknown,0,2013-02-23 13:55:00
8:15 AM,24.8,17.6,74,30.05,9.0,ENE,4.6,-,N/A,,Unknown,60,2013-02-23 14:15:00
8:35 AM,24.8,17.6,74,30.05,10.0,ENE,3.5,-,N/A,,Unknown,70,2013-02-23 14:35:00
8:55 AM,26.6,17.6,69,30.06,10.0,ENE,3.5,-,N/A,,Unknown,70,2013-02-23 14:55:00
9:15 AM,26.6,17.6,69,30.06,10.0,NNE,4.6,-,N/A,,Unknown,30,2013-02-23 15:15:00
9:35 AM,28.4,17.6,64,30.06,10.0,NNE,3.5,-,N/A,,Unknown,20,2013-02-23 15:35:00
9:55 AM,30.2,19.4,64,30.06,10.0,Calm,Calm,-,N/A,,Unknown,0,2013-02-23 15:55:00
10:15 AM,30.2,17.6,60,30.06,10.0,Calm,Calm,-,N/A,,Unknown,0,2013-02-23 16:15:00
10:35 AM,33.8,17.6,52,30.07,10.0,Calm,Calm,-,N/A,,Unknown,0,2013-02-23 16:35:00
10:55 AM,33.8,17.6,52,30.07,10.0,Calm,Calm,-,N/A,,Unknown,0,2013-02-23 16:55:00
11:15 AM,35.6,17.6,48,30.07,10.0,Calm,Calm,-,N/A,,Unknown,0,2013-02-23 17:15:00
11:35 AM,35.6,17.6,48,30.07,10.0,West,4.6,-,N/A,,Unknown,280,2013-02-23 17:35:00
12:15 PM,37.4,17.6,45,30.06,10.0,SW,6.9,-,N/A,,Unknown,230,2013-02-23 18:15:00
12:35 PM,39.2,19.4,45,30.06,10.0,Calm,Calm,-,N/A,,Unknown,0,2013-02-23 18:35:00
12:55 PM,41.0,19.4,42,30.06,10.0,WSW,8.1,-,N/A,,Unknown,240,2013-02-23 18:55:00
1:15 PM,39.2,19.4,45,30.04,10.0,WSW,6.9,-,N/A,,Unknown,250,2013-02-23 19:15:00
1:35 PM,41.0,19.4,42,30.03,10.0,WSW,8.1,-,N/A,,Unknown,240,2013-02-23 19:35:00
1:55 PM,42.8,19.4,39,30.02,10.0,SW,6.9,-,N/A,,Unknown,230,2013-02-23 19:55:00
2:15 PM,42.8,19.4,39,30.01,10.0,WSW,5.8,-,N/A,,Unknown,250,2013-02-23 20:15:00
2:35 PM,42.8,19.4,39,30.00,10.0,WSW,3.5,-,N/A,,Unknown,240,2013-02-23 20:35:00
2:55 PM,44.6,21.2,39,29.99,10.0,WNW,3.5,-,N/A,,Unknown,290,2013-02-23 20:55:00
3:15 PM,44.6,21.2,39,29.98,10.0,WNW,4.6,-,N/A,,Unknown,290,2013-02-23 21:15:00
3:35 PM,44.6,21.2,39,29.98,10.0,WNW,4.6,-,N/A,,Unknown,290,2013-02-23 21:35:00
3:55 PM,44.6,23.0,43,29.97,10.0,North,5.8,-,N/A,,Unknown,350,2013-02-23 21:55:00
4:15 PM,44.6,23.0,43,29.97,10.0,North,3.5,-,N/A,,Unknown,10,2013-02-23 22:15:00
4:35 PM,44.6,23.0,43,29.96,10.0,North,4.6,-,N/A,,Unknown,10,2013-02-23 22:35:00
4:55 PM,44.6,21.2,39,29.97,10.0,NW,3.5,-,N/A,,Unknown,320,2013-02-23 22:55:00
5:15 PM,42.8,21.2,42,29.97,10.0,NNW,3.5,-,N/A,,Unknown,330,2013-02-23 23:15:00
5:35 PM,42.8,21.2,42,29.97,10.0,North,4.6,-,N/A,,Unknown,360,2013-02-23 23:35:00
5:55 PM,42.8,21.2,42,29.98,10.0,Calm,Calm,-,N/A,,Unknown,0,2013-02-23 23:55:00
6:15 PM,39.2,21.2,49,29.97,10.0,North,3.5,-,N/A,,Unknown,10,2013-02-24 00:15:00
6:55 PM,37.4,21.2,52,29.97,10.0,ENE,3.5,-,N/A,,Unknown,60,2013-02-24 00:55:00
7:15 PM,37.4,19.4,48,29.98,10.0,NE,3.5,-,N/A,,Unknown,50,2013-02-24 01:15:00
7:35 PM,37.4,19.4,48,29.99,10.0,Calm,Calm,-,N/A,,Unknown,0,2013-02-24 01:35:00
7:55 PM,35.6,21.2,56,29.98,10.0,NE,3.5,-,N/A,,Unknown,50,2013-02-24 01:55:00
8:15 PM,35.6,19.4,52,29.98,10.0,Calm,Calm,-,N/A,,Unknown,0,2013-02-24 02:15:00
8:35 PM,33.8,19.4,56,29.98,10.0,East,4.6,-,N/A,,Unknown,90,2013-02-24 02:35:00
8:55 PM,30.2,19.4,64,29.97,10.0,East,3.5,-,N/A,,Unknown,90,2013-02-24 02:55:00
9:15 PM,33.8,19.4,56,29.98,10.0,East,4.6,-,N/A,,Unknown,100,2013-02-24 03:15:00
9:35 PM,33.8,19.4,56,29.98,10.0,East,4.6,-,N/A,,Unknown,90,2013-02-24 03:35:00
9:55 PM,33.8,19.4,56,29.98,10.0,ESE,4.6,-,N/A,,Unknown,110,2013-02-24 03:55:00
10:15 PM,32.0,19.4,60,29.98,10.0,East,4.6,-,N/A,,Unknown,90,2013-02-24 04:15:00
10:35 PM,30.2,19.4,64,29.98,10.0,East,5.8,-,N/A,,Unknown,100,2013-02-24 04:35:00
10:55 PM,30.2,19.4,64,29.98,10.0,ESE,4.6,-,N/A,,Unknown,110,2013-02-24 04:55:00
11:15 PM,28.4,17.6,64,29.98,10.0,Calm,Calm,-,N/A,,Unknown,0,2013-02-24 05:15:00
11:35 PM,30.2,19.4,64,29.98,10.0,East,4.6,-,N/A,,Unknown,90,2013-02-24 05:35:00
11:55 PM,32.0,19.4,60,29.98,10.0,East,3.5,-,N/A,,Unknown,90,2013-02-24 05:55:00